Terminal Aerodrome Forecast
Issued by NWS Wilmington, NC

Home | Current Version | Previous Version | Text Only | Print | Product List | Glossary On
Versions: 1 2 3 4 5 6 7 8 9 10 11 12 13
000
FTUS42 KILM 290522
TAFLBT
TAF
KLBT 290522Z 2906/3006 05007KT P6SM VCSH SCT020 BKN080
     FM290900 03009KT 6SM BR VCSH BKN008 OVC015
     FM291300 06008KT 6SM -SHRA BKN015
     FM291700 12006KT 6SM -SHRA BKN025
     FM300000 02004KT 6SM -SHRA SCT015 BKN040=

USA.gov is the U.S. government's official web portal to all federal, state and local government web resources and services.